Regional Weather Roundup
Issued by NWS

Home | Current Version | Previous Version | Graphics & Text | Print | Product List | Glossary On
Versions: 1 2 3 4 5 6 7 8 9 10 11 12 13 14 15 16 17 18 19 20 21 22 23 24 25 26 27 28 29 30 31 32 33 34 35 36 37 38 39 40 41 42 43 44 45 46 47 48 49 50
000
ASUS45 KBOU 050407
RWRCO

WEATHER ROUNDUP FOR COLORADO
NATIONAL WEATHER SERVICE DENVER/BOULDER CO
900 PM MST WED MAR 04 2015

NOTE: "FAIR" INDICATES FEW OR NO CLOUDS BELOW 12000 FEET WITH NO
SIGNIFICANT WEATHER AND/OR OBSTRUCTIONS TO VISIBILITY.

COZ001>005-013-030-031-050500-
...NORTHWEST COLORADO...

CITY           SKY/WX    TMP DP  RH WIND       PRES   REMARKS
CRAIG          CLEAR      9   2  73 SE5       30.24R WCI   1
HAYDEN         CLEAR      7  -2  66 E9        30.22R WCI  -7
MEEKER         CLEAR     17   5  59 E12       30.24R WCI   4
MOUNT WERNER   NOT AVBL
STEAMBOAT SPGS CLOUDY     8  -1  66 CALM      30.23R
WALDEN         CLEAR     -2  -9  71 E10       30.14R WCI -19
$$

COZ006>008-011-050500-
...WEST CENTRAL VALLEYS...

CITY           SKY/WX    TMP DP  RH WIND       PRES   REMARKS
GRAND JUNCTION CLEAR     30  12  47 E7        30.24R WCI  23
MONTROSE       CLEAR     28  18  66 SE8       30.27R WCI  20
EAGLE          CLEAR     14   7  73 VRB6      30.29R WCI   5
RIFLE          PTCLDY    23  13  65 SE3       30.28R
DELTA          CLEAR     31  15  52 E5        30.26R WCI  27
NUCLA          CLEAR     28  18  64 E3        30.27R
$$

COZ017>023-064>068-050500-
...SOUTHWEST COLORADO...

CITY           SKY/WX    TMP DP  RH WIND       PRES   REMARKS
DURANGO        CLEAR     28   3  34 NW12      30.14R WCI  18
CORTEZ         CLEAR     28  16  60 SE5       30.22R WCI  23
PAGOSA SPRINGS CLEAR     17  -3  41 N3        30.13R
TELLURIDE      PTCLDY    17   4  57 W12       30.17R WCI   4
WOLF CREEK PAS   N/A      1   0  92 N21G29    30.05R WCI -20
$$

COZ009-010-012-014-032>034-037-058>063-050500-
...CENTRAL COLORADO...

CITY           SKY/WX    TMP DP  RH WIND       PRES   REMARKS
ASPEN          PTCLDY     8  -2  63 S6        30.21R WCI  -2
BUENA VISTA    PTCLDY    15  -1  49 NW14G20   30.15R WCI   0
COPPER MTN     NOT AVBL
BERTHOUD PASS  FAIR     -11 -17  77 NW28G37   29.93R WCI -40
COTTONWOOD PAS PTCLDY    14  -8  37 W15G25    30.07R WCI  -1
GUNNISON       PTCLDY    12   0  57 CALM      30.22R
KREMMLING      PTCLDY     9   1  72 CALM      30.22S
LEADVILLE      PTCLDY    -2 -10  69 N9        30.09R WCI -18
SALIDA         PTCLDY    15   9  79 CALM      30.23R
SUNLIGHT       PTCLDY     7   3  85 N8          N/A  WCI  -6
WILKERSON PASS CLEAR      0 -13  55 NW14G24   29.99R WCI -19
$$

COZ069>075-050500-
...SAN LUIS VALLEY/SANGRE DE CRISTO MOUNTAINS...

CITY           SKY/WX    TMP DP  RH WIND       PRES   REMARKS
ALAMOSA        CLEAR     22   5  48 NW16G22   30.13R WCI   8
LA VETA PASS   PTCLDY     7   1  78 MISG      30.04R
SAGUACHE       CLEAR     21   1  42 N15G21    30.14R WCI   8
$$

COZ035-036-038>040-050500-
...NORTHERN COLORADO FRONT RANGE...

CITY           SKY/WX    TMP DP  RH WIND       PRES   REMARKS
DENVER INTL AP PTCLDY    12   4  70 S16       30.20R WCI  -5
DMNS CITY PARK   N/A     15   6  68 S5        30.21S WCI   7
AURORA         PTCLDY     9   3  75 S10       30.20R WCI  -5
FRONT RANGE AP NOT AVBL
ERIE MUNI ARPT CLEAR      9   6  89 CALM      30.22R
BOULDER MUN AP CLEAR     12   9  85 SW3       30.20R
CENTENNIAL     CLEAR      9   3  77 S9        30.19R WCI  -4
BROOMFIELD     PTCLDY    10   7  85 SW6       30.19R WCI   1
FORT COLLINS   CLEAR      7   1  78 S8        30.21S WCI  -6
LONGMONT       CLEAR      8   2  77 W3        30.24R
$$

COZ041-046-047-076>085-087-088-050500-
...PIKES PEAK/PALMER DIVIDE AND SOUTHERN FOOTHILLS...

CITY           SKY/WX    TMP DP  RH WIND       PRES   REMARKS
COLO. SPRINGS  LGT SNOW  11   9  92 SE5       30.23R FOG     WCI   3
A. F. ACADEMY  FLURRIES  10   6  84 S5        30.19R WCI   2
ELLICOTT       NOT AVBL
FALCON         LGT SNOW   9   7  92 SW10      30.18R WCI  -5
FORT CARSON    PTCLDY     8   6  89 S5        30.23R FOG     WCI   0
LIMON          CLEAR     -4  -8  83 N6        30.25R WCI -16
MONUMENT HILL  PTCLDY     3   0  85 S9        30.13R WCI -11
TRINIDAD       CLOUDY    10   8  92 NE3       30.25R
$$

COZ042>045-048>051-090-091-050500-
...NORTHEAST COLORADO...

CITY           SKY/WX    TMP DP  RH WIND       PRES   REMARKS
GREELEY ARPT   CLEAR     12   1  62 SW3       30.22R
AKRON          CLEAR     13   8  81 SW13      30.23R WCI  -2
BURLINGTON     CLEAR     16   9  74 W9        30.28R WCI   4
WRAY           CLOUDY    20  12  71 SW3       30.30R
STERLING       CLEAR     18  10  73 W8        30.25S WCI   7
HOLYOKE        NOT AVBL
FORT MORGAN    CLEAR     13   8  79 W6        30.26R WCI   4
$$

COZ086-089-092>099-050500-
...SOUTHEAST COLORADO...

CITY           SKY/WX    TMP DP  RH WIND       PRES   REMARKS
PUEBLO         CLOUDY    10   7  87 CALM      30.31R
LA JUNTA       CLEAR     16  10  77 SW5       30.32R WCI   9
LAMAR          CLEAR     18  15  88 S6        30.33R WCI  10
SPRINGFIELD      N/A      8   5  87 W8        30.30R WCI  -4
$$



USA.gov is the U.S. government's official web portal to all federal, state and local government web resources and services.